Location: Hackbridge
(51.3833°N, 0.1500°W)
Time: 19:57:41
(UTC+00:00)

Daily predictions for brighter satellites

Satellite Brightness Start Highest point End
(mag) Time Altitude Azimuth Time Altitude Azimuth Time Altitude Azimuth
Cosmos 1503 Rocket 4.2 17:37:52 10° NNW 17:42:57 53° ENE 17:48:00 10° SE
SMAP 4.0 17:39:50 10° S 17:44:24 55° W 17:49:00 10° NNW
ASTEX 1 4.0 17:41:23 10° NNE 17:45:56 36° E 17:50:28 10° SSE
CZ-2D R/B 4.4 17:43:50 10° ESE 17:46:57 24° ENE 17:50:07 10° N
Unknown 3.1 17:44:20 10° WSW 17:47:45 82° NNW 17:51:11 10° ENE
Cosmos 1626 Rocket 4.5 17:43:43 10° NNW 17:48:00 55° W 17:52:17 10° S
Cosmos 2263 Rocket 2.4 17:43:08 10° SSW 17:48:50 79° WNW 17:54:31 10° NNE
Cosmos 1953 3.0 17:45:29 10° SSE 17:49:09 33° E 17:52:51 10° NNE
Cosmos 1271 Rocket 3.3 17:45:28 10° N 17:49:11 39° ENE 17:52:56 10° SE
Unknown 3.2 17:47:31 10° WSW 17:51:02 87° N 17:54:34 10° ENE
Cosmos 839 Rocket 4.4 17:45:33 10° NW 17:51:32 49° NE 17:57:52 10° ESE
CSL-04 Rocket 3.8 17:46:26 10° SE 17:51:51 57° ENE 17:57:14 10° N
Falcon 9 debris 3.2 17:49:28 10° WSW 17:52:56 81° NNW 17:56:24 10° ENE
Cosmos 1758 3.3 17:49:10 10° S 17:53:06 60° E 17:57:01 10° NNE
H-2A R/B 3.8 17:50:54 10° E 17:53:43 15° NE 17:56:34 10° NNE
Cosmos 921 Rocket 4.5 17:51:42 10° SE 17:54:46 18° E 17:57:49 10° NE
Cosmos 1953 Rocket 3.9 17:53:01 10° N 17:57:17 45° ENE 18:01:28 10° SSE
Cosmos 1825 Rocket 3.5 17:53:08 10° N 17:57:29 63° ENE 18:01:49 10° SSE
Cosmos 1703 4.5 17:55:01 10° NNE 17:58:13 23° ENE 18:01:24 10° ESE
Cosmos 1833 Rocket 3.9 17:56:49 10° NNW 18:01:25 25° NE 18:05:42 11° E
ATLAS CENTAUR R/B 3.7 17:58:16 10° WNW 18:02:01 21° NNW 18:05:40 10° NNE
Cosmos 2285 Rocket 4.0 17:57:51 10° NNW 18:04:21 80° ENE 18:10:46 10° SSE
USA 116 4.0 18:02:06 10° NE 18:04:52 29° E 18:07:40 10° SSE
COSMOS 2406 3.7 18:01:36 10° NNW 18:07:09 43° NE 18:12:37 10° ESE
CZ-4 R/B 4.4 18:03:25 10° SSE 18:07:32 87° ENE 18:11:41 10° NNW
Cosmos 1939 Rocket 3.5 18:04:42 10° SE 18:08:20 35° ENE 18:12:01 10° N
Cosmos 332 Rocket 4.1 18:05:10 10° SSW 18:09:59 74° WNW 18:14:54 10° NNE
Unknown 2.4 18:11:18 10° WNW 18:13:57 72° NNE 18:15:41 19° E
FengYun 1-2 T 4.4 18:08:22 10° SSE 18:14:01 84° WSW 18:19:42 10° NNW
Cosmos 2082 Rocket 3.5 18:09:55 10° NNW 18:14:30 24° NE 18:18:01 14° E
Cosmos 1626 3.1 18:11:20 10° NNW 18:14:58 51° W 18:18:34 10° S
Cosmos 1606 Rocket 3.6 18:11:00 10° S 18:15:18 55° E 18:19:36 10° NNE
HJ-1C 4.4 18:14:37 11° SE 18:17:26 27° ENE 18:20:22 10° N
Unknown 4.5 18:14:40 10° SSW 18:18:24 33° SE 18:20:58 17° E
Lacrosse 5 rocket 1.2 18:15:17 10° WNW 18:19:01 77° SSW 18:22:35 12° SE
Cosmos 1758 Rocket 3.8 18:14:52 10° NNW 18:19:17 75° W 18:23:44 10° S
SL-24 R/B - RUBIN 2 4.4 18:14:54 10° SW 18:19:48 65° NW 18:25:24 10° NE
Unknown 4.4 18:17:54 10° SSW 18:21:40 34° SE 18:24:07 18° E
CZ-4 R/B 1.8 18:19:07 10° S 18:23:15 69° WSW 18:27:27 10° NNW
Unknown 4.4 18:19:33 10° SSW 18:23:21 35° SE 18:25:46 19° E
CZ-4C R/B 3.4 18:16:53 10° NW 18:23:52 63° SW 18:31:51 10° SSE
Unknown 4.4 18:21:10 10° SSW 18:24:58 36° SE 18:27:19 19° E
Unknown 3.0 18:23:08 10° WNW 18:26:14 64° N 18:27:59 23° E
Cosmos 1726 2.8 18:23:18 10° SSE 18:26:33 31° E 18:29:50 10° NNE
Unknown 4.3 18:22:46 10° SSW 18:26:34 36° SE 18:28:51 20° E
Unknown 4.3 18:23:29 10° SSW 18:27:18 37° SE 18:29:35 20° E
CSL-04 Debris 4.4 18:23:53 10° SSE 18:29:20 79° WSW 18:34:51 10° NNW
Unknown 4.3 18:25:58 10° SSW 18:29:46 36° SE 18:31:53 21° E
SKYMED 2 3.7 18:27:07 10° NNE 18:31:29 81° WNW 18:35:49 10° SSW
Unknown 4.3 18:29:16 10° SW 18:33:07 38° SE 18:35:06 23° E
Unknown 4.2 18:30:54 10° SW 18:34:45 39° SSE 18:36:42 24° E
Cosmos 1328 3.8 18:30:58 10° N 18:34:57 58° ENE 18:38:52 10° SSE
Lacrosse 5 2.4 18:31:10 10° WNW 18:36:04 47° N 18:39:16 20° ENE
Unknown 4.1 18:32:41 10° SW 18:36:36 42° SSE 18:38:34 25° E
Envisat 4.3 18:32:46 10° S 18:37:38 44° W 18:42:30 10° NNW
USA 186 3.7 18:39:11 14° NNE 18:39:11 14° NNE 18:39:49 10° NNE
Unknown 4.2 18:34:08 10° SW 18:38:02 40° SSE 18:39:51 25° E
Unknown 4.1 18:35:50 10° SW 18:39:44 41° SSE 18:41:31 26° E
Meteor 1-16 Rocket 4.1 18:34:57 10° S 18:40:28 62° E 18:45:52 10° NNE
YAOGAN 1 3.2 18:37:11 10° S 18:41:27 59° WSW 18:45:45 10° NNW
Unknown 4.1 18:39:02 10° SW 18:42:58 43° SSE 18:44:37 28° E
Cosmos 1470 4.2 18:40:15 10° SW 18:44:02 41° WNW 18:47:50 10° N
Unknown 4.0 18:40:45 10° SW 18:44:42 44° SSE 18:46:18 29° E
Unknown 4.0 18:42:23 10° SW 18:46:20 45° SSE 18:47:53 30° E
Cosmos 1908 3.7 18:43:54 10° SSE 18:47:32 38° E 18:51:10 10° NNE
Unknown 4.0 18:44:04 10° SW 18:48:01 46° SSE 18:49:30 31° E
Cosmos 1844 Rocket 2.6 18:42:35 10° SSW 18:48:14 75° ESE 18:53:53 10° NNE
FREGAT/IRIS 3.4 18:49:11 31° NE 18:49:11 31° NE 18:51:12 10° N
Unknown 3.4 18:45:07 10° WSW 18:49:01 77° SSE 18:50:41 32° ENE
Cosmos 1356 3.6 18:47:02 10° S 18:50:20 46° E 18:53:41 10° NNE
Unknown 3.9 18:47:18 10° SW 18:51:17 48° SSE 18:52:40 33° E
Unknown 3.9 18:49:09 10° SW 18:53:09 50° SSE 18:54:29 35° E
Unknown 3.8 18:49:13 10° SW 18:53:15 53° SSE 18:54:39 35° E
Unknown 3.8 18:50:48 10° SW 18:54:50 54° SSE 18:56:11 36° E
Cosmos 1242 Rocket 2.7 18:52:18 10° NNW 18:55:59 76° W 18:59:40 10° S
Unknown 3.3 18:53:30 10° WSW 18:57:21 89° SSE 18:58:40 39° ENE
Unknown 3.8 18:53:52 10° SW 18:57:53 52° SSE 18:59:02 39° ESE
Cosmos 1726 Rocket 3.8 18:53:59 10° SSW 18:58:23 71° W 19:02:47 10° N
Cosmos 2278 Rocket 3.2 18:54:39 10° SSE 18:58:05 25° SE 18:58:05 25° SE
Unknown 3.8 18:57:10 10° SW 19:01:13 54° SSE 19:02:14 42° ESE
Cosmos 1844 3.6 18:55:38 10° SSW 19:01:19 75° ESE 19:07:06 10° NNE
BREEZE-M DEB (TANK) 4.1 18:56:56 10° WNW 19:01:23 64° SSW 19:09:18 19° SE
Cosmos 1605 Rocket 3.9 18:55:27 10° N 19:01:46 80° E 19:07:55 10° SSE
Cosmos 1076 Rocket 4.1 18:58:40 10° N 19:02:43 35° ENE 19:02:48 35° ENE
Unknown 3.7 18:58:52 10° SW 19:02:56 55° SSE 19:03:54 43° ESE
Cosmos 2058 Rocket 2.9 18:58:38 10° S 19:03:00 88° ESE 19:07:24 10° N
MONITOR-E 3.7 19:03:41 84° ENE 19:03:41 84° ENE 19:06:29 10° NNW
Unknown 3.3 19:00:39 10° W 19:04:11 65° N 19:04:55 49° NE
Unknown 3.3 19:00:31 10° W 19:04:16 77° NNW 19:05:16 46° ENE
Unknown 3.7 19:00:28 10° SW 19:04:31 56° SSE 19:05:26 45° ESE
FALCON 9 DEB 3.3 19:02:10 10° W 19:05:38 64° N 19:06:16 51° NE
Unknown 3.7 19:02:10 10° SW 19:06:14 57° SSE 19:07:05 47° ESE
Cosmos 1459 Rocket 4.4 19:01:00 10° N 19:06:44 39° ENE 19:08:37 31° ESE
Meteor 2-10 3.8 19:03:17 10° S 19:08:24 79° E 19:13:29 10° NNE
Cosmos 292 Rocket 3.8 19:04:12 10° S 19:08:47 50° ESE 19:13:23 10° NNE
Cosmos 1727 Rocket 4.1 19:03:31 10° SSE 19:09:25 49° E 19:15:19 10° NNE
Cosmos 1461 3.4 19:05:42 10° NNW 19:09:32 40° NE 19:09:56 39° NE
Resurs 01 Rocket 3.0 19:12:00 23° NE 19:12:00 23° NE 19:14:49 10° N
SL-4 R/B 3.4 19:08:24 10° W 19:11:37 26° SW 19:12:59 20° S
SPOT 3 Rocket 3.6 19:10:30 32° SE 19:12:41 56° ENE 19:17:47 10° N
Unknown 3.6 19:08:46 10° SW 19:12:51 62° SSE 19:13:27 54° ESE
Unknown 3.6 19:10:22 10° SW 19:14:28 63° SSE 19:15:00 56° ESE
Unknown 3.5 19:11:10 10° WSW 19:15:14 68° SSE 19:15:47 59° ESE
Unknown 3.6 19:12:05 10° SW 19:16:11 64° SSE 19:16:40 58° ESE
Unknown 3.5 19:13:44 10° WSW 19:17:51 65° SSE 19:18:16 60° ESE
Gbstr 26 Del rocket 4.1 19:12:25 10° W 19:18:39 88° S 19:21:56 36° ESE
Cosmos 2228 4.3 19:15:06 10° SW 19:19:17 43° WNW 19:23:28 10° N
ADEOS Rocket 3.8 19:12:03 10° NNE 19:19:28 45° E 19:26:33 10° SSE
Unknown 3.5 19:15:22 10° WSW 19:19:28 67° SSE 19:19:50 63° ESE
BREEZE M DEB (TANK) 3.6 19:17:11 10° W 19:19:40 32° SSW 19:20:56 27° SSE
Ariane Rocket 3.6 19:15:03 10° S 19:20:03 58° WSW 19:25:07 10° NNW
ATLAS 5 CENTAUR R/B 2.0 19:17:53 10° WSW 19:22:14 65° NW 19:25:26 21° NE
Unknown 3.5 19:18:43 10° WSW 19:22:50 69° SSE 19:23:05 67° SE
MINOTAUR IV R/B 4.5 19:19:29 10° NNW 19:24:02 74° ENE 19:24:50 57° SE
Starlink (trailer) 3.5 19:20:20 10° WSW 19:24:27 70° SSE 19:24:37 69° SE
Unknown 3.3 19:21:23 10° WNW 19:24:33 64° NNW 19:24:33 64° NNW
Cosmos 2173 Rocket 4.1 19:18:57 10° N 19:25:06 51° ENE 19:26:51 40° ESE
Unknown 3.5 19:22:02 10° WSW 19:26:09 71° SSE 19:26:16 71° SE
CZ-2C R/B 4.5 19:22:55 10° NNE 19:25:41 34° NE 19:25:41 34° NE
Unknown 3.5 19:23:39 10° WSW 19:27:47 72° SSE 19:27:49 72° SSE
Unknown 3.5 19:24:54 10° W 19:28:09 63° NNW 19:28:09 63° NNW
SJ-6B 2.7 19:30:21 73° NNE 19:30:21 73° NNE 19:33:55 10° NNW
Falcon 9 debris 3.5 19:26:40 10° WNW 19:29:42 60° NW 19:29:42 60° NW
H-2A R/B 2.0 19:30:47 48° SE 19:32:10 67° ENE 19:37:32 10° N
Cosmos 921 Rocket 3.5 19:28:07 10° SSW 19:32:36 63° WNW 19:37:04 10° NNE
Unknown 3.4 19:28:40 10° WSW 19:32:40 86° SSW 19:32:40 86° SSW
Cosmos 2263 Rocket 4.4 19:29:19 10° W 19:33:41 22° NW 19:38:02 10° NNE
Unknown 3.6 19:30:14 10° WSW 19:34:11 74° SSW 19:34:11 74° SSW
Unknown 3.6 19:30:26 10° WSW 19:34:22 75° SSW 19:34:22 75° SSW
Unknown 3.6 19:31:11 10° WSW 19:35:05 74° SSW 19:35:05 74° SSW
CZ-2C R/B 3.5 19:35:54 49° E 19:36:36 52° ENE 19:42:14 10° N
Cosmos 1777 Rocket 4.2 19:31:55 10° NNW 19:37:08 67° WSW 19:39:37 31° S
Unknown 3.7 19:35:15 10° WSW 19:39:00 70° SW 19:39:00 70° SW
Cosmos 2100 Rocket 3.9 19:33:13 10° N 19:39:27 67° ENE 19:41:15 46° SE
Unknown 3.7 19:35:23 10° WSW 19:39:08 70° SW 19:39:08 70° SW
Resurs 1-3 4.3 19:41:05 42° NNE 19:41:05 42° NNE 19:44:21 10° N
USA 234 3.8 19:41:14 35° SSE 19:41:14 35° SSE 19:46:18 10° SSW
Unknown 3.7 19:37:01 10° WSW 19:40:43 70° SW 19:40:43 70° SW
SJ 16-02 3.2 19:37:48 10° N 19:39:47 19° NNE 19:39:47 19° NNE
ATLAS CENTAUR R/B 3.8 19:39:37 10° NW 19:42:36 16° N 19:43:53 15° NNE
Unknown 3.8 19:40:18 10° WSW 19:43:54 65° WSW 19:43:54 65° WSW
Unknown 3.9 19:41:01 10° WSW 19:44:34 63° WSW 19:44:34 63° WSW
Unknown 3.9 19:41:55 10° WSW 19:45:25 62° WSW 19:45:25 62° WSW
Cosmos 1833 Rocket 2.6 19:40:25 10° NNW 19:46:05 86° WSW 19:47:25 54° SSE
Unknown 4.1 19:45:07 10° WSW 19:48:29 57° WSW 19:48:29 57° WSW
Cosmos 967 Rocket 4.4 19:44:02 10° NW 19:50:31 76° NE 19:51:47 59° ESE
COSMOS 2406 4.3 19:46:04 10° NW 19:51:29 43° WSW 19:55:20 18° S
Cosmos 2084 3.7 19:47:13 10° SW 19:51:42 67° NW 19:52:00 65° NNW
Unknown 4.2 19:48:32 10° WSW 19:51:47 54° WSW 19:51:47 54° WSW
ARGOS 3.1 19:53:08 61° SSE 19:54:10 90° WSW 19:59:39 10° NNW
Unknown 4.3 19:50:10 10° WSW 19:53:21 52° WSW 19:53:21 52° WSW
Unknown 4.3 19:51:55 10° WSW 19:55:02 50° WSW 19:55:02 50° WSW
Lacrosse 5 rocket 3.6 19:55:16 10° W 19:57:40 16° SW 19:58:15 16° SW
Unknown 4.4 19:53:34 10° WSW 19:56:37 48° WSW 19:56:37 48° WSW
Cosmos 2082 Rocket 2.0 19:53:40 10° NNW 19:59:26 87° ENE 19:59:53 77° SE
Cosmos 1726 4.5 19:58:50 10° SW 20:01:50 23° WNW 20:04:51 10° NNW
NOSS 3-3 (A) 4.4 19:55:20 10° NW 20:02:41 82° NE 20:04:35 56° ESE
NOSS 3-3 (C) 4.4 19:55:26 10° NW 20:02:46 82° NE 20:04:40 57° ESE
Cosmos 2061 Rocket 3.8 19:59:11 10° N 20:05:29 71° ENE 20:05:39 71° E
Cosmos 2016 Rocket 3.9 20:01:38 10° N 20:07:49 70° ENE 20:07:49 70° ENE
Cosmos 1898 Rocket 4.1 20:12:16 10° NNW 20:16:12 48° N 20:16:12 48° N
Lacrosse 5 2.3 20:14:20 10° WNW 20:18:27 59° WNW 20:18:27 59° WNW
Cosmos 2058 4.5 20:18:39 10° NNW 20:21:12 33° NW 20:21:12 33° NW
In-Cosmos 22 Rocket 4.5 20:25:26 10° NNW 20:30:08 61° WNW 20:30:08 61° WNW
Cosmos 2278 Rocket 3.6 20:37:23 10° SW 20:50:05 - NNE 20:40:06 29° SW
Resurs 01 Rocket 3.6 20:49:35 27° NW 20:49:35 27° NW 20:51:46 10° NNW
ADEOS Rocket 4.2 20:57:32 10° N 21:05:03 53° WNW 21:12:17 10° SW
ATLAS 5 CENTAUR R/B 3.9 21:03:54 10° WNW 21:06:59 24° NNW 21:06:59 24° NNW
H-2A R/B 4.1 21:11:26 21° W 21:12:06 22° W 21:16:13 10° NW
SJ 16-02 4.2 21:15:57 10° NNW 21:16:46 15° NNW 21:16:46 15° NNW
ATLAS CENTAUR R/B 4.4 21:19:05 10° NNW 21:20:04 15° NNW 21:20:04 15° NNW
Cosmos 2082 Rocket 4.5 21:38:56 10° WNW 21:41:44 18° W 21:41:44 18° W
